{"data":{"norad_id":60517,"intl_designator":"2024-149BB","name":"FLOCK 4BE-14","alt_names":[],"object_type":"PAYLOAD","status":"ACTIVE","operator":null,"country":"US","launch_date":"2024-08-16","launch_site_code":"AFWTR","launch_vehicle":null,"mission":null,"orbit_class":"UNKNOWN","rcs_meters":null,"size_class":null,"mass_kg":null,"dimensions":null,"purposes":["earth_obs"],"wikipedia_slug":null,"has_3d_model":false,"image_url":null,"decayed_at":null,"tle_current":{"epoch":"2026-05-25T04:11:31.622784Z","epoch_age_seconds":53870,"freshness":"FRESH","line1":"1 60517U 24149BB  26145.17467156  .00015922  00000+0  39837-3 0  9995","line2":"2 60517  97.3694 228.7547 0004551  40.0906 320.0675 15.40178273 98781","mean_motion":15.40178273,"eccentricity":0.0004551,"inclination_deg":97.3694,"raan_deg":228.7547,"arg_perigee_deg":40.0906,"mean_anomaly_deg":320.0675,"bstar":0.00039837,"rev_number":9878,"period_min":93.495670289851,"perigee_km":442.47723642275,"apogee_km":448.68818610394,"semimajor_km":6823.7197112633,"source":"CELESTRAK","updated_at":"2026-05-25T13:38:13.334149Z"}}}